www.pogodaiklimat.ru

Погода и климат >> Архив погоды >> Мексика >> Hermosillo


ПОГОДА в Hermosillo

  • Прогноз погоды в Hermosillo
  • Монитор погоды в Hermosillo
  • Климат города

АРХИВ ПОГОДЫ в Hermosillo

Время (UTC), дата Ветер
(напр.,м/с)
 
Видим.   Явления Облачность Т
(С)
Тd
(С)
f
(%)
Тe
(С)
Тes
(С)
Комфортность P
(гПа)
Po
(гПа)
Тmin
(С)
Tmax
(С)
R
(мм)
R24
(мм)
S
(см)
18 11.10 ЮВ 1 12 км 9/9 600 м
[Sc]
+26.0 +19.7 68 +32 +33 очень
душно
1011.9 987.7 +22.0 +26.0
21 11.10 З 1 12 км слабая морось 9/9 900 м
[Sc diur, vesp]
+23.2 +21.5 90 +31 +32 очень
душно
1010.7 986.5 4
00 12.10 СВ 1 12 км 9/9 600 м
[Sc diur, vesp]
+22.4 +20.7 90 +29 +29 очень
душно
1010.4 986.3 6
03 12.10 СВ 2 8000 м слабая морось {дождь} 10/10 900 м
[Frnb]
+20.6 +17.0 80 +25 +25 комфорт 1011.3 987.1 4
09 12.10 СВ 2 8000 м слабый дождь {морось} 10/10 900 м
[Frnb]
+19.8 +18.9 95 +23 +23 комфорт 1009.4 984.9 7
12 12.10 С 3 8000 м слабая морось {дождь} 10/10 900 м
[Frnb]
+19.4 +18.6 95 +22 +22 комфорт 1007.3 982.9 +19.4 +26.5 9
15 12.10 СВ 2 12 км сильная морось {дождь} 10/10 600 м
[Sc Ac inh Cc]
+20.2 +19.3 95 +24 +24 комфорт 1005.4 981.0 2
18 12.10 СВ 4 12 км 10/10 600 м
[Sc Ac inh Cc]
+19.6 +19.0 96 +22 +22 комфорт 1002.4 978.1 +19.5 +19.6 11
21 12.10 СВ 4 12 км слабая морось {дождь} 10/10 900 м
[Sc Ac inh Cc]
+19.6 +19.0 96 +22 +22 комфорт 999.4 985.2 44
00 13.10 ЮЗ 1 12 км в посл. час морось {дождь} 10/10 300 м
[Sc Ac inh Cc]
+20.8 +19.0 89 +26 +26 душно 1006.5 982.1 44
03 13.10 штиль 0 8000 м 8/0 2000 м
[As op]
+20.4 +19.2 93 +24 +24 комфорт 1009.9 985.5
15 13.10 Ю 1 12 км 9/9 900 м
[Sc]
+20.8 +19.3 91 +26 +27 душно 1011.2 986.8
15 14.10 штиль 0 12 км 10/10 900 м
[Sc]
+20.0 +17.3 84 +23 +23 комфорт 1012.2 987.7
18 14.10 СВ 1 12 км 9/9 900 м
[Sc diur, vesp]
+24.8 +14.9 54 +28 +29 жарко 1012.9 988.5 +19.0 +24.8
15 15.10 СВ 2 12 км 4/4 900 м
[Sc diur, vesp]
+18.8 +16.0 84 +20 +21 1013.1 988.5
18 15.10 ЮВ 1 12 км 4/4 900 м
[Sc diur, vesp]
+24.0 +15.8 60 +27 +35 жарко 1012.8 988.4 +17.5 +24.0
00 16.10 З 2 12 км 4/4 600 м
[Cu hum]
+28.6 +13.7 40 +30 +31 жарко 1010.1 985.8 +17.5 +30.0
06 16.10 штиль 0 8000 м 5/5 900 м
[Sc diur, vesp]
+21.0 +13.0 60 +23 +23 комфорт 1011.5 987.3 +30.0
15 16.10 СВ 1 12 км ясно +17.8 +11.8 68 +19 +21 1013.4 988.9
18 16.10 ЮВ 1 12 км ясно +25.6 +13.7 48 +28 +41 жарко 1013.6 989.2 +16.5 +25.6
00 17.10 З 2 12 км ясно +28.8 +4.4 21 +27 +28 жарко 1011.6 987.3 +16.5 +30.0
03 17.10 ЮЗ 2 8000 м ясно +23.0 +8.5 39 +24 +24 комфорт 1012.7 988.5
15 17.10 В 2 12 км ясно +19.0 +11.7 63 +20 +22 1014.2 989.7
18 17.10 В 3 12 км ясно +25.0 +14.1 51 +27 +37 жарко 1014.3 989.8 +16.1 +25.0
21 17.10 Ю 1 12 км ясно +30.0 +11.9 33 +31 +43 жарко 1010.9 986.8
00 18.10 З 2 12 км ясно +30.0 +8.6 26 +29 +30 жарко 1010.1 986.3 +16.0 +32.0
15 18.10 В 1 12 км 1/1 900 м
[Sc diur, vesp]
+18.8 +12.9 69 +21 +22 комфорт 1014.4 989.7

 

Местоположение метеостанции Hermosillo (Мексика): широта 29.09 долгота -111.05 высота над уровнем моря 191 м.

В архиве по умолчанию представлена погода в Hermosillo за последнюю неделю. Архивные данные за месяц целиком и за предыдущие месяцы, начиная с января 2011 года, Вы можете получить, выбрав интересующий диапазон дат из раскрывающегося списка и нажав кнопку "Ввод!".


*Определитесь, кто Вы:
робот инопланетянин человек

Внимание! Время в таблицах - всемирное. Для получения местного времени необходимо прибавить поправку, которая в Hermosillo равна -7 ч.

Смотрите также архив погоды в соседних городах и на ближайших метеорологических станциях:

Погода в Hermosillo la Magna (Мексика) (10 км)
Погода в Guaymas (Мексика) (131 км)
Погода в Empalme (Мексика) (131 км)
Погода в Pilares de Nacoz (Мексика) (194 км)
Погода в Altar Son (Мексика) (196 км)
Погода в Ciudad Obregon (Мексика) (224 км)
Погода в Santa Rosalia (Мексика) (233 км)
Погода в Temosachic (Мексика) (316 км)
Погода в Nueva Casas Grandes (Мексика) (336 км)
Погода в Loreto (Мексика) (342 км)

Пояснения к столбцам:

Ветер - указаны скорость ветра в м/с - средняя за 10 мин, порывы в срок и между сроками (в фигурных скобках) и направление, откуда дует ветер: С - северный, СВ - северо-восточный, В - восточный, ЮВ - юго-восточный, Ю - южный, ЮЗ - юго-западный, З - западный, СЗ - северо-западный.
Видимость - горизонтальная дальность видимости в метрах или километрах. При видимости от 1 до 10 км при отсутствии осадков обычно наблюдается дымка, при ухудшении видимости до 1 км и менее - туман. В сухую погоду видимость может ухудшаться дымом, пылью или мглою.
Явления - указаны атмосферные явления, наблюдавшиеся в срок или в последний час перед сроком; фигурными скобками обозначены явления, наблюдавшиеся между сроками (за 1-3 часа до срока); квадратными скобками обозначены град или гололедные отложения с указанием их диаметра в мм.
Облачность - указаны через наклонную черту общая и нижняя облачность в баллах и высота нижней границы облаков в метрах; квадратными скобками обозначены формы облаков: Ci - перистые, Cs - перисто-слоистые, Cc - перисто-кучевые, Ac - высококучевые, As - высокослоистые, Sc - слоисто-кучевые, Ns - слоисто-дождевые, Cu - кучевые, Cb - кучево-дождевые. Подробнее классификацию облаков см. в Атласе облаков (PDF).
T - Температура воздуха - температура, измеренная на высоте 2 м над землей.
Td - Температура точки росы - температура, при понижении до которой содержащийся в воздухе водяной пар достигнет насыщения.
f - Относительная влажность воздуха - влажноcть воздуха, измеренная на высоте 2 м над землей.
Te - Эффективная температура - температура, которую ощущает одетый по сезону человек в тени. Характеристика душности погоды. При расчете учитывается влияние влажности воздуха и скорости ветра на теплоощущения человека.
Tes - Эффективная температура на солнце - температура, которую ощущает человек, с поправкой на солнечный нагрев. Характеристика знойности погоды. Зависит от высоты солнца над горизонтом, облачности и скорости ветра. Ночью, в пасмурную погоду, а также при ветре 12 м/с и более поправка равна нулю.
P - Атмосферное давление - приведенное к уровню моря атмосферное давление.
Po - Атмосферное давление - измеренное на уровне метеостанции атмосферное давление.
Tmin - Минимальная температура - минимум температуры воздуха на высоте 2 м над землей.
Tmax - Максимальная температура - максимум температуры воздуха на высоте 2 м над землей.
R - Количество осадков - Количество выпавших осадков за период времени, мм. При наведении курсора мыши на число - период времени, за который выпало указанное количество осадков.
R24 - Количество осадков - Количество выпавших осадков за 24 часа, мм.
S - Снежный покров - Высота снежного покрова, см. При наведении курсора мыши на число - состояние снежного покрова и степень покрытия местности в баллах.